Hurricane Symbol View the latest observations near Atlantic Tropical Storm Alberto.

Station BLIA2 - Bligh Reef Light, AK Image indicating link to RSS feed of recent meteorological observations for station BLIA2


Conditions at BLIA2 as of
(8:30 am AKDT)
1630 GMT on 06/19/2024:
     

Click on the graph icon in the table below to see a time series plot of the last five days of that observation.

5-day plot - Wind Direction Wind Direction (WDIR): S ( 190 deg true )
5-day plot - Wind Speed Wind Speed (WSPD): 3 kts
5-day plot - Wind Gust Wind Gust (GST): 4 kts
5-day plot - Atmospheric Pressure Atmospheric Pressure (PRES):30.07 in
5-day plot - Air Temperature Air Temperature (ATMP): 61.2 °F
5-day plot - Wind Speed at 10 Meters Wind Speed at 10 meters (WSPD10M): 4 kts
5-day plot - Wind Speed at 20 Meters Wind Speed at 20 meters (WSPD20M): 4 kts
5-day plot -  Wind Speed, Wind Gust and Atmospheric Pressure Combined plot of Wind Speed, Gust, and Air Pressure
Continuous Winds
TIME
(AKDT)
5-day plot - Wind Direction WDIR 5-day plot - Wind Speed WSPD
8:30 amSSW ( 193 deg ) 4 kts
8:20 amS ( 181 deg ) 4 kts
8:10 amS ( 182 deg ) 4 kts
8:00 amSSW ( 193 deg ) 4 kts
7:50 amS ( 189 deg ) 4 kts
7:40 amS ( 188 deg ) 4 kts
 
Peak gust during the measurement hour
TIME
(AKDT)
5-day plot - Gust Direction GDR 5-day plot - Gust Speed GST
8:15 amS ( 170 deg ) 5 kts
Previous observations
TIME
(AKDT)
5-day plot - Wind Direction
WDIR
 
5-day plot - Wind Speed
WSPD
kts
5-day plot - Wind Gust
GST
kts
5-day plot - Wave Height
WVHT
ft
5-day plot - Dominant Wave Period
DPD
sec
5-day plot - Average Wave Period
APD
sec
5-day plot - Mean Wave Direction
MWD
 
5-day plot - Atmospheric Pressure
PRES
in
5-day plot - Pressure Tendency
PTDY
in
5-day plot - Air Temperature
ATMP
°F
5-day plot - Water Temperature
WTMP
°F
5-day plot - Dew Point
DEWP
°F
5-day plot - Salinity
SAL
psu
5-day plot - Visibility
VIS
nmi
5-day plot - Tide (above MLLW)
TIDE
ft
2024-06-19 08:00 amSSW 4 5----30.07+0.00 61.2-----
2024-06-19 07:30 am S 4 4----30.06- 61.2-----
2024-06-19 07:00 am SE 4 5----30.06+0.00 61.2-----
2024-06-19 06:30 amSSE 4 4----30.06- 61.2-----
2024-06-19 06:00 amSSE 4 5----30.06+0.00 61.2-----
2024-06-19 05:30 amSSE 2 2----30.06- 61.2-----
2024-06-19 05:00 am S 5 6----30.06-0.01 61.3-----
2024-06-19 04:30 amSSE 3 4----30.06- 61.3-----
2024-06-19 04:00 am W 3 4----30.06-0.01 61.3-----
2024-06-19 03:30 amWNW 4 5----30.06- 61.2-----
2024-06-19 03:00 am W 2 3----30.06+0.00 61.0-----
2024-06-19 02:30 amWNW 3 4----30.06- 60.4-----
2024-06-19 02:00 amWNW 5 6----30.07+0.00 60.6-----
2024-06-19 01:30 amWNW 3 4----30.07- 61.2-----
2024-06-19 01:00 am NW 4 5----30.07+0.00 61.2-----
2024-06-19 12:30 amWSW 4 5----30.07- 61.5-----
2024-06-19 12:00 amWSW 4 5----30.07+0.00 61.5-----
2024-06-18 11:30 pmWSW 5 6----30.07- 61.5-----
2024-06-18 11:00 pmWSW 3 4----30.07+0.00 61.3-----
2024-06-18 10:30 pm SW 4 4----30.07- 61.2-----
2024-06-18 10:00 pm SW 4 4----30.07-0.01 61.3-----
2024-06-18 09:30 pm SW 3 3----30.06- 61.3-----
2024-06-18 09:00 pmSSW 5 5----30.07-0.02 61.2-----
2024-06-18 08:30 pmSSW 3 4----30.07- 61.2-----
2024-06-18 08:00 pmSSW 5 5----30.07-0.02 61.2-----
2024-06-18 07:30 pm SW 3 4----30.08- 61.3-----
2024-06-18 07:00 pmSSW 2 3----30.08-0.02 61.3-----
2024-06-18 06:30 pmSSW 3 3----30.09- 61.2-----
2024-06-18 06:00 pm SW 4 4----30.09-0.01 61.2-----
2024-06-18 05:30 pm SW 5 5----30.09- 61.0-----
2024-06-18 05:00 pm SW 4 5----30.09-0.01 61.0-----
2024-06-18 04:30 pm SW 6 6----30.10- 60.8-----
2024-06-18 04:00 pm SW 4 5----30.10+0.00 60.6-----
2024-06-18 03:30 pm SW 3 4----30.10- 61.0-----
2024-06-18 03:00 pm SW 4 4----30.10+0.00 60.6-----
2024-06-18 02:30 pm SW 4 5----30.10- 60.1-----
2024-06-18 02:00 pmWSW 4 5----30.11+0.01 60.1-----
2024-06-18 01:30 pmWSW 4 4----30.11- 59.7-----
2024-06-18 01:00 pm SW 6 6----30.10+0.02 59.5-----
2024-06-18 12:30 pm SW 7 7----30.10- 59.2-----
2024-06-18 12:00 pm SW 8 8----30.10+0.02 58.8-----
2024-06-18 11:30 am SW 9 10----30.10- 58.6-----
2024-06-18 11:00 am SW 9 10----30.09+0.02 58.6-----
2024-06-18 10:30 am SW 9 9----30.09- 58.6-----
2024-06-18 10:00 am SW 9 9----30.08+0.01 58.5-----
2024-06-18 09:30 am SW 9 10----30.08- 58.5-----
2024-06-18 09:00 am SW 9 9----30.08+0.01 58.6-----
2024-06-18 08:30 am SW 9 9----30.08- 58.8-----
2024-06-18 08:00 am SW 6 8----30.08+0.00 59.2-----